This demonstration page uses our WeatherBlox Daily Observations layout. Learn more.

Left ArrowRight Arrow

Hourly Observations for June 3, 2018

Temp ( °F °C ) Dew Point ( °F °C ) Humidity (%) Winds ( mph kmh ) Pressure ( in mb ) Visibility ( mi km ) Precip ( " mm )
12:53 am 00:53 Clear 50 10 44 6.7 80 80 Calm 30.10 1019 10 16 0.00 0.00
1:53 am 01:53 Clear 47 8.3 42 5.6 83 83 SSW 7 11 30.09 1019 10 16 0.00 0.00
2:53 am 02:53 Clear 45 7.2 42 5.6 90 90 SW 6 9 30.10 1019 10 16 0.00 0.00
3:53 am 03:53 Clear 45 7.2 42 5.6 90 90 Calm 30.10 1019 10 16 0.00 0.00
4:53 am 04:53 Clear 44 6.7 41 5 89 89 W 5 7 30.11 1020 10 16 0.00 0.00
5:53 am 05:53 Sunny 44 6.7 41 5 89 89 W 5 7 30.12 1020 10 16 0.00 0.00
6:53 am 06:53 Sunny 50 10 44 6.7 80 80 WSW 6 9 30.11 1020 10 16 0.00 0.00
7:53 am 07:53 Sunny 56 13.3 45 7.2 67 67 WSW 8 13 30.09 1019 10 16 0.00 0.00
8:53 am 08:53 Sunny 63 17.2 45 7.2 52 52 WSW 8 13 30.08 1019 10 16 0.00 0.00
9:53 am 09:53 Sunny 68 20 44 6.7 42 42 WSW 7 11 30.08 1019 10 16 0.00 0.00
10:53 am 10:53 Sunny 72 22.2 41 5 33 33 W 6 9 30.06 1018 10 16 0.00 0.00
11:53 am 11:53 Sunny 73 22.8 40 4.4 30 30 SSW 9 15 30.04 1017 10 16 0.00 0.00
12:53 pm 12:53 Sunny 75 23.9 39 3.9 27 27 VRB 5 7 30.01 1016 10 16 0.00 0.00
1:53 pm 13:53 Sunny 77 25 39 3.9 26 26 SW 9 15 29.99 1016 10 16 0.00 0.00
2:53 pm 14:53 Sunny 78 25.6 37 2.8 23 23 S 6 9 29.96 1015 10 16 0.00 0.00
3:53 pm 15:53 Sunny 80 26.7 39 3.9 23 23 VRB 5 7 29.94 1014 10 16 0.00 0.00
4:53 pm 16:53 Sunny 80 26.7 37 2.8 21 21 SE 6 9 29.92 1013 10 16 0.00 0.00
5:53 pm 17:53 Sunny 80 26.7 39 3.9 23 23 SW 7 11 29.90 1013 10 16 0.00 0.00
6:53 pm 18:53 Sunny 80 26.7 40 4.4 24 24 WSW 6 9 29.87 1012 10 16 0.00 0.00
7:53 pm 19:53 Sunny 79 26.1 42 5.6 27 27 Calm 29.85 1011 10 16 0.00 0.00
8:53 pm 20:53 Sunny 72 22.2 46 7.8 40 40 ENE 5 7 29.84 1011 10 16 0.00 0.00
9:53 pm 21:53 Clear 64 17.8 51 10.6 63 63 ESE 9 15 29.85 1011 10 16 0.00 0.00
10:53 pm 22:53 Clear 61 16.1 48 8.9 63 63 S 3 6 29.83 1010 10 16 0.00 0.00
11:53 pm 23:53 Clear 66 18.9 45 7.2 47 47 ESE 9 15 29.79 1009 10 16 0.00 0.00

Powered by AerisWeather